Weather History for Proserpine, QU

Change the Weather History Date:

Saturday, December 21, 2013

  Actual Average Record
Temperature  
Mean Temperature 77 °F -  
Max Temperature 87 °F - - ()
Min Temperature 67 °F - - ()
Cooling Degree Days 12    
Growing Degree Days 27 (Base 50)    
Moisture  
Dew Point 64 °F    
Average Humidity 65    
Maximum Humidity 94    
Minimum Humidity 25    
Precipitation  
Precipitation 0.00 in - - ()
Sea Level Pressure  
Sea Level Pressure 29.94 in    
Wind  
Wind Speed 8 mph ()    
Max Wind Speed 17 mph    
Max Gust Speed -    
Visibility 6.9 miles    
Events      
T = Trace of Precipitation, MM = Missing Value Source: Averaged Metar Reports

Daily Weather History Graph

Daily Weather History Graph

Search for Another Location

Airport:

Trip Planner

Search our weather history database for the weather conditions in past years. The results will help you decide how hot, cold, wet, or windy it might be!

Date:

Astronomy

Dec. 21, 2013 Rise Set
Actual Time 5:22 AM AEST 6:45 PM AEST
Civil Twilight 4:57 AM AEST 7:09 PM AEST
Nautical Twilight 4:28 AM AEST 7:39 PM AEST
Astronomical Twilight 3:57 AM AEST 8:09 PM AEST
Moon 9:23 PM AEST (12/21) 8:20 AM AEST (12/21)
Length of Visible Light 14h 12m
Length of Day
13h 22m
Waning Gibbous, 88% of the Moon is Illuminated
Dec 21
Waning Gibbous
Dec 25
Last Quarter
Jan 1
New
Jan 8
First Quarter
Jan 16
Full

Hourly Weather History & Observations

Time (AEST) Temp. Heat Index Dew Point Humidity Pressure Visibility Wind Dir Wind Speed Gust Speed Precip Events Conditions
12:00 AM 73 °F - 66 °F 72% 29.98 in - South 8.1 mph - -  
12:00 AM 73.4 °F - 66.2 °F 78% 29.98 in 6.2 mi South 9.2 mph - N/A   Mostly Cloudy
1:00 AM 69.8 °F - 68.0 °F 94% 29.95 in 6.2 mi South 6.9 mph - N/A   Mostly Cloudy
2:00 AM 69.8 °F - 66.2 °F 88% 29.95 in 6.2 mi South 6.9 mph - N/A   Mostly Cloudy
3:00 AM 68 °F - 65 °F 87% 29.94 in - WSW 3.5 mph - -  
3:00 AM 68.0 °F - 64.4 °F 88% 29.95 in 6.2 mi SW 3.5 mph - N/A   Unknown
4:00 AM 68.0 °F - 64.4 °F 88% 29.92 in 6.2 mi South 6.9 mph - N/A   Unknown
5:00 AM 69.8 °F - 64.4 °F 83% 29.95 in 6.2 mi South 8.1 mph - N/A   Unknown
6:00 AM 70 °F - 66 °F 82% 29.96 in - South 6.9 mph - -  
6:00 AM 69.8 °F - 66.2 °F 88% 29.95 in 6.2 mi South 6.9 mph - N/A   Unknown
7:00 AM 75.2 °F - 64.4 °F 69% 29.98 in 6.2 mi South 8.1 mph - N/A   Unknown
8:00 AM 80.6 °F 81.8 °F 62.6 °F 54% 29.98 in 6.2 mi SSE 8.1 mph - N/A   Unknown
9:00 AM 82 °F - 62 °F 40% 29.98 in 19 mi SE 13.8 mph - -   Partly Cloudy
9:00 AM 82.4 °F 83.4 °F 62.6 °F 51% 29.98 in 6.2 mi SE 13.8 mph - N/A   Unknown
10:00 AM 84.2 °F 84.4 °F 60.8 °F 45% 29.98 in 6.2 mi ESE 13.8 mph - N/A   Unknown
11:00 AM 86.0 °F 85.4 °F 59.0 °F 40% 29.95 in 6.2 mi ESE 13.8 mph - N/A   Unknown
12:00 PM 87 °F - 56 °F 25% 29.94 in - ESE 15.0 mph - -  
12:00 PM 86.0 °F 84.5 °F 55.4 °F 35% 29.95 in 6.2 mi SE 16.1 mph - N/A   Unknown
1:00 PM 86.0 °F 86.6 °F 62.6 °F 45% 29.92 in 6.2 mi ESE 15.0 mph - N/A   Unknown
2:00 PM 84.2 °F 85.6 °F 64.4 °F 51% 29.89 in 6.2 mi ESE 16.1 mph - N/A   Scattered Clouds
3:00 PM 84 °F - 62 °F 38% 29.90 in 12 mi ESE 17.3 mph - -   Partly Cloudy
3:00 PM 84.2 °F 85.6 °F 64.4 °F 51% 29.89 in 6.2 mi ESE 17.3 mph - N/A   Unknown
4:00 PM 82.4 °F 83.4 °F 62.6 °F 51% 29.89 in 6.2 mi ESE 16.1 mph - N/A   Mostly Cloudy
5:00 PM 82.4 °F 85.4 °F 68.0 °F 62% 29.89 in 6.2 mi ESE 15.0 mph - N/A   Scattered Clouds
6:00 PM 80 °F - 68 °F 58% 29.91 in - East 10.4 mph - -  
6:00 PM 78.8 °F - 68.0 °F 69% 29.89 in 6.2 mi East 10.4 mph - N/A   Unknown
7:00 PM 77.0 °F - 66.2 °F 69% 29.92 in 6.2 mi East 8.1 mph - N/A   Unknown
8:00 PM 75.2 °F - 66.2 °F 73% 29.92 in 6.2 mi East 4.6 mph - N/A   Scattered Clouds
9:00 PM 74 °F - 66 °F 70% 29.95 in - Calm Calm - -  
9:00 PM 73.4 °F - 66.2 °F 78% 29.95 in 6.2 mi Calm Calm - N/A   Scattered Clouds
10:00 PM 71.6 °F - 66.2 °F 83% 29.95 in 6.2 mi South 1.2 mph - N/A   Unknown
11:00 PM 71.6 °F - 66.2 °F 83% 29.95 in 6.2 mi South 2.3 mph - N/A   Scattered Clouds